sat.trackr.live / text

‹ back to catalog

STARLINK-5543

NORAD 56341 · 2023-058AA

PAYLOAD ACTIVE UNKNOWN

§ Identity

Operator
Country
US
Launch date
2023-04-27
Launch site
AFWTR
Launch vehicle
Mass (kg)
RCS (m²)

Purposes: comms

External: N2YO · Heavens-Above · Gunter

§ Orbital elements

Epoch: 2026-09-20T22:00:03.000096Z

Period
94.72 min
Inclination
97.2862°
Eccentricity
0.0001696
Mean motion
15.20296653 rev/d
Perigee alt
503.8 km
Apogee alt
506.1 km
Semi-major
6,883.1 km
B*
3.7358e-3
RAAN
257.8145°
Arg perigee
67.7346°
Mean anomaly
127.8716°
Rev number
563

§ Raw data

STARLINK-55431 56341U 23058AA  26263.91670139  .00081934  00000+0  37358-2 0  99942 56341  97.2862 257.8145 0001696  67.7346 127.8716 15.20296653  5637

JSON: /api/v1/satellites/56341 · /tle

For live sub-satellite position, see the globe view (requires WebGL).

§ Visibility from observer

Set your observer location to see the next 7 days of passes ≥ 10°. The values pass through the URL so the page stays shareable.

No JS? Fill the form by hand. The geolocation button needs JavaScript.